Flag for U.S.A. Weather past 2 weeks in Plano, Texas, U.S.A.

Now
62 °F

Rain. Fog.


Feels Like: 62 °F
Forecast: 64 / 77 °F
Wind: 6 mph from East

Location: McKinney Municipal Airport


UV Index: 0 (Low)

Visibility: 6 mi


Pressure: 30.08 "Hg

Humidity: 93%

Dew point: 60 °F

Location of PlanoLocation

Historic Weather in Plano

°F

Plano temperature yesterday

Maximum temperature yesterday: 76 °F (at 2:53 PM)
Minimum temperature yesterday: 49 °F (at 6:53 AM)
Average temperature yesterday: 64 °F

Past Weeks' High & Low Weather Summary

 TemperatureHumidityPressure
High82 °F (Apr 10, 4:53 PM)97% (Apr 6, 8:53 PM)30.35 "Hg (Apr 6, 8:53 PM)
Low32 °F (Apr 15, 5:53 AM)20% (Apr 15, 5:53 PM)29.54 "Hg (Apr 13, 6:53 PM)
Average60 °F66%30.03 "Hg
* Reported Apr 5 8:53 PM — Apr 20 8:53 PM, Plano, Weather by CustomWeather, © 2014

Note: Actual official high and low records may vary slightly from our data, if they occured in-between our weather recording intervals... More about our weather records

Advertising

Historic Weather Conditions — Data for Previous 24 hours

 ConditionsComfort  
Time TempWeatherWind HumidityBarometerVisibility
8:53 PM
Apr 20
62 °FLight rain. Overcast.5 mph93%30.07 "Hg7 mi
7:53 PM63 °FMostly cloudy.5 mph87%30.07 "Hg10 mi
6:53 PM71 °FMostly cloudy.9 mph55%30.08 "Hg10 mi
5:53 PM72 °FMostly cloudy.7 mph52%30.06 "Hg10 mi
4:53 PM73 °FMore clouds than sun.16 mph46%30.05 "Hg10 mi
3:53 PM76 °FMore clouds than sun.17 mph45%30.06 "Hg10 mi
2:53 PM77 °FPassing clouds.13 mph45%30.06 "Hg10 mi
1:53 PM76 °FMostly cloudy.18 mph47%30.11 "Hg10 mi
12:53 PM76 °FPassing clouds.15 mph50%30.12 "Hg10 mi
11:53 AM75 °FSunny.14 mph52%30.14 "Hg10 mi
10:53 AM72 °FPassing clouds.10 mph57%30.14 "Hg10 mi
9:53 AM68 °FSunny.No wind68%30.13 "Hg10 mi
8:53 AM65 °FSunny.No wind78%30.14 "Hg10 mi
7:53 AM62 °FSunny.No wind83%30.13 "Hg10 mi
6:53 AM61 °FClear.8 mph83%30.10 "Hg10 mi
5:53 AM58 °FClear.No wind87%30.10 "Hg10 mi
4:53 AM58 °FClear.7 mph87%30.10 "Hg10 mi
3:53 AM57 °FClear.3 mph87%30.10 "Hg10 mi
2:53 AM58 °FPassing clouds.No wind84%30.12 "Hg10 mi
1:53 AM57 °FClear.No wind90%30.14 "Hg10 mi
12:53 AM60 °FClear.No wind78%30.12 "Hg10 mi
11:53 PM
Apr 19
59 °FClear.No wind81%30.13 "Hg10 mi
Weather by CustomWeather, © 2014

See weather overview